User: anonymous   Login
Location: Cañada de la Miga
(34.7595°N, 106.2317°W)
Time: 00:30:38
(UTC+00:00)
Language:

Transit 2A - Orbit

View from above orbital plane
View from above orbital plane
View from above satellite
View from above satellite

Ground track
Ground track

The orbit data is extracted from the following two-line orbital elements,

1 00045U 60007A   21331.52076122  .00000013  00000-0  30016-4 0  9995
2 00045  66.6954  69.2470 0262099 290.6632  66.6546 14.33752209141534
Epoch (UTC): 27 November 2021 12:29:53
Eccentricity: 0.0262099
inclination: 66.6954°
perigee height: 591 km
apogee height: 967 km
right ascension of ascending node: 69.2470°
argument of perigee: 290.6632°
revolutions per day: 14.33752209
mean anomaly at epoch: 66.6546°
orbit number at epoch: 14153

The dashed part of the orbit path shows where the satellite is in the earth's shadow,  

DLR